Time,TemperatureF,DewpointF,PressureIn,WindDirection,WindDirectionDegrees,WindSpeedMPH,WindSpeedGustMPH,Humidity,HourlyPrecipIn,Conditions,Clouds,dailyrainin,SoftwareType,DateUTC
2013-10-14 00:23:00,53.0,35.0,30.35,ENE,78,0.0,1.0,51,0.00,,,0.00,,2013-10-14 05:23:00,
2013-10-14 00:43:00,53.0,36.0,30.34,ESE,118,0.0,2.0,52,0.00,,,0.00,,2013-10-14 05:43:00,
2013-10-14 00:52:00,52.0,35.0,30.33,ESE,105,0.0,1.0,52,0.00,,,0.00,,2013-10-14 05:52:00,
2013-10-14 01:13:00,52.0,35.0,30.32,NE,53,0.0,2.0,52,0.00,,,0.00,,2013-10-14 06:13:00,
2013-10-14 01:22:00,52.0,35.0,30.33,NE,40,0.0,6.0,52,0.00,,,0.00,,2013-10-14 06:22:00,
2013-10-14 01:52:00,52.0,35.0,30.33,ENE,58,0.0,5.0,52,0.00,,,0.00,,2013-10-14 06:52:00,
2013-10-14 02:11:00,52.0,35.0,30.33,East,98,0.0,5.0,52,0.00,,,0.00,,2013-10-14 07:11:00,
2013-10-14 02:22:00,53.0,35.0,30.33,NE,55,0.0,4.0,51,0.00,,,0.00,,2013-10-14 07:22:00,
2013-10-14 02:42:00,53.0,35.0,30.33,East,83,0.0,4.0,51,0.00,,,0.00,,2013-10-14 07:42:00,
2013-10-14 02:52:00,53.0,35.0,30.33,ESE,106,0.0,5.0,50,0.00,,,0.00,,2013-10-14 07:52:00,
2013-10-14 03:12:00,53.0,35.0,30.32,SSE,150,0.0,4.0,50,0.00,,,0.00,,2013-10-14 08:12:00,
2013-10-14 03:22:00,53.0,35.0,30.31,East,95,0.0,4.0,51,0.00,,,0.00,,2013-10-14 08:22:00,
2013-10-14 03:42:00,52.0,35.0,30.31,SE,145,0.0,4.0,52,0.00,,,0.00,,2013-10-14 08:42:00,
2013-10-14 03:52:00,52.0,35.0,30.30,East,85,0.0,4.0,53,0.00,,,0.00,,2013-10-14 08:52:00,
2013-10-14 04:11:00,52.0,35.0,30.30,SE,131,0.0,7.0,53,0.00,,,0.00,,2013-10-14 09:11:00,
2013-10-14 04:22:00,52.0,35.0,30.29,East,99,0.0,7.0,53,0.00,,,0.00,,2013-10-14 09:22:00,
2013-10-14 04:43:00,52.0,35.0,30.29,SE,146,0.0,5.0,53,0.00,,,0.00,,2013-10-14 09:43:00,
2013-10-14 04:53:00,53.0,36.0,30.29,SE,131,0.0,4.0,53,0.00,,,0.00,,2013-10-14 09:53:00,
2013-10-14 05:13:00,53.0,36.0,30.28,East,101,0.0,9.0,52,0.00,,,0.00,,2013-10-14 10:13:00,
2013-10-14 05:23:00,53.0,36.0,30.27,ESE,118,0.0,5.0,52,0.00,,,0.00,,2013-10-14 10:23:00,
2013-10-14 05:42:00,53.0,36.0,30.26,ESE,120,1.0,8.0,52,0.00,,,0.00,,2013-10-14 10:42:00,
2013-10-14 05:53:00,53.0,35.0,30.25,East,100,1.0,7.0,51,0.00,,,0.00,,2013-10-14 10:53:00,
2013-10-14 06:22:00,53.0,36.0,30.24,SE,132,1.0,10.0,52,0.00,,,0.00,,2013-10-14 11:22:00,
2013-10-14 06:42:00,53.0,36.0,30.24,ESE,123,1.0,12.0,52,0.00,,,0.00,,2013-10-14 11:42:00,
2013-10-14 06:52:00,53.0,36.0,30.24,East,98,0.0,6.0,52,0.00,,,0.00,,2013-10-14 11:52:00,
2013-10-14 07:12:00,53.0,36.0,30.24,ENE,76,0.0,5.0,53,0.00,,,0.00,,2013-10-14 12:12:00,
2013-10-14 07:22:00,53.0,36.0,30.25,ESE,109,0.0,4.0,53,0.00,,,0.00,,2013-10-14 12:22:00,
2013-10-14 07:42:00,53.0,36.0,30.24,ESE,116,0.0,10.0,53,0.00,,,0.00,,2013-10-14 12:42:00,
2013-10-14 07:52:00,53.0,36.0,30.23,ESE,107,1.0,8.0,53,0.00,,,0.00,,2013-10-14 12:52:00,
2013-10-14 08:11:00,53.0,36.0,30.22,ESE,121,0.0,9.0,53,0.00,,,0.00,,2013-10-14 13:11:00,
2013-10-14 08:21:00,53.0,37.0,30.22,ESE,113,3.0,8.0,54,0.00,,,0.00,,2013-10-14 13:21:00,
2013-10-14 08:42:00,53.0,37.0,30.23,SE,132,1.0,6.0,55,0.00,,,0.00,,2013-10-14 13:42:00,
2013-10-14 08:52:00,54.0,38.0,30.23,SSE,150,1.0,9.0,55,0.00,,,0.00,,2013-10-14 13:52:00,
2013-10-14 09:11:00,54.0,38.0,30.22,ESE,107,2.0,11.0,55,0.00,,,0.00,,2013-10-14 14:11:00,
2013-10-14 09:22:00,54.0,38.0,30.23,SE,134,0.0,8.0,55,0.00,,,0.00,,2013-10-14 14:22:00,
2013-10-14 09:42:00,54.0,39.0,30.22,East,95,0.0,8.0,56,0.00,,,0.00,,2013-10-14 14:42:00,
2013-10-14 09:52:00,54.0,39.0,30.21,ESE,114,1.0,6.0,56,0.00,,,0.00,,2013-10-14 14:52:00,
2013-10-14 10:11:00,55.0,39.0,30.21,SE,138,1.0,9.0,55,0.00,,,0.00,,2013-10-14 15:11:00,
2013-10-14 10:21:00,57.0,40.0,30.21,ESE,114,3.0,10.0,53,0.00,,,0.00,,2013-10-14 15:21:00,
2013-10-14 10:44:00,58.0,40.0,30.21,East,95,1.0,9.0,52,0.00,,,0.00,,2013-10-14 15:44:00,
2013-10-14 10:54:00,59.0,40.0,30.20,SSW,204,5.0,12.0,49,0.00,,,0.00,,2013-10-14 15:54:00,
2013-10-14 11:13:00,59.0,40.0,30.19,SE,138,2.0,12.0,50,0.00,,,0.00,,2013-10-14 16:13:00,
2013-10-14 11:23:00,60.0,41.0,30.18,East,98,2.0,11.0,50,0.00,,,0.00,,2013-10-14 16:23:00,
2013-10-14 11:53:00,61.0,42.0,30.17,SE,128,1.0,11.0,50,0.00,,,0.00,,2013-10-14 16:53:00,
2013-10-14 12:11:00,61.0,42.0,30.16,SE,146,0.0,10.0,50,0.00,,,0.00,,2013-10-14 17:11:00,
2013-10-14 12:22:00,62.0,43.0,30.15,SSE,156,2.0,12.0,50,0.00,,,0.00,,2013-10-14 17:22:00,
2013-10-14 12:42:00,63.0,45.0,30.16,ESE,109,2.0,9.0,51,0.00,,,0.00,,2013-10-14 17:42:00,
2013-10-14 12:52:00,63.0,45.0,30.13,ESE,117,2.0,11.0,52,0.00,,,0.00,,2013-10-14 17:52:00,
2013-10-14 13:12:00,65.0,47.0,30.13,ENE,69,5.0,18.0,52,0.00,,,0.00,,2013-10-14 18:12:00,
2013-10-14 13:22:00,65.0,46.0,30.12,East,87,4.0,13.0,51,0.00,,,0.00,,2013-10-14 18:22:00,
2013-10-14 13:42:00,65.0,47.0,30.11,East,86,5.0,14.0,53,0.00,,,0.00,,2013-10-14 18:42:00,
2013-10-14 13:52:00,65.0,49.0,30.11,SE,143,2.0,10.0,56,0.00,,,0.00,,2013-10-14 18:52:00,
2013-10-14 14:11:00,64.0,48.0,30.10,East,87,2.0,13.0,56,0.00,,,0.00,,2013-10-14 19:11:00,
2013-10-14 14:22:00,64.0,49.0,30.09,SE,145,2.0,9.0,58,0.00,,,0.00,,2013-10-14 19:22:00,
2013-10-14 14:42:00,62.0,49.0,30.08,East,94,0.0,10.0,63,0.00,,,0.00,,2013-10-14 19:42:00,
2013-10-14 14:52:00,60.0,51.0,30.07,ESE,120,1.0,7.0,72,0.01,,,0.01,,2013-10-14 19:52:00,
2013-10-14 15:11:00,58.0,52.0,30.07,South,172,0.0,4.0,79,0.03,,,0.03,,2013-10-14 20:11:00,
2013-10-14 15:22:00,58.0,52.0,30.06,SSE,154,0.0,9.0,80,0.04,,,0.04,,2013-10-14 20:22:00,
2013-10-14 15:43:00,57.0,51.0,30.04,SE,134,1.0,7.0,81,0.04,,,0.04,,2013-10-14 20:43:00,
2013-10-14 15:52:00,57.0,52.0,30.04,SSE,163,0.0,7.0,82,0.02,,,0.04,,2013-10-14 20:52:00,
2013-10-14 16:22:00,58.0,52.0,30.03,SE,126,2.0,8.0,81,0.01,,,0.05,,2013-10-14 21:22:00,
2013-10-14 16:44:00,58.0,53.0,30.02,SE,131,0.0,7.0,82,0.01,,,0.05,,2013-10-14 21:44:00,
2013-10-14 16:54:00,58.0,53.0,30.01,ESE,117,0.0,7.0,82,0.01,,,0.05,,2013-10-14 21:54:00,
2013-10-14 17:24:00,58.0,52.0,30.00,East,80,0.0,8.0,81,0.00,,,0.05,,2013-10-14 22:24:00,
2013-10-14 17:43:00,58.0,53.0,30.00,ESE,109,0.0,7.0,82,0.00,,,0.05,,2013-10-14 22:43:00,
2013-10-14 17:54:00,59.0,54.0,29.99,ESE,119,0.0,8.0,82,0.00,,,0.05,,2013-10-14 22:54:00,
2013-10-14 18:22:00,59.0,54.0,29.99,ESE,119,3.0,9.0,83,0.00,,,0.05,,2013-10-14 23:22:00,
2013-10-14 18:52:00,59.0,54.0,29.99,East,88,2.0,10.0,83,0.00,,,0.05,,2013-10-14 23:52:00,
2013-10-14 19:12:00,59.0,54.0,29.98,ESE,109,3.0,8.0,83,0.00,,,0.05,,2013-10-15 00:12:00,
2013-10-14 19:22:00,60.0,55.0,29.97,ESE,117,4.0,10.0,83,0.00,,,0.05,,2013-10-15 00:22:00,
2013-10-14 19:42:00,60.0,55.0,29.97,ESE,107,2.0,11.0,84,0.00,,,0.05,,2013-10-15 00:42:00,
2013-10-14 19:52:00,60.0,55.0,29.96,ESE,103,3.0,13.0,84,0.00,,,0.05,,2013-10-15 00:52:00,
2013-10-14 20:12:00,59.0,55.0,29.95,ESE,110,3.0,11.0,86,0.00,,,0.05,,2013-10-15 01:12:00,
2013-10-14 20:22:00,59.0,55.0,29.95,East,92,3.0,12.0,86,0.00,,,0.05,,2013-10-15 01:22:00,
2013-10-14 20:42:00,59.0,55.0,29.94,ESE,117,2.0,12.0,86,0.00,,,0.05,,2013-10-15 01:42:00,
2013-10-14 20:52:00,59.0,55.0,29.94,SE,130,5.0,12.0,87,0.00,,,0.05,,2013-10-15 01:52:00,
2013-10-14 21:12:00,59.0,55.0,29.94,East,98,4.0,12.0,87,0.00,,,0.05,,2013-10-15 02:12:00,
2013-10-14 21:22:00,60.0,56.0,29.94,SSE,153,2.0,15.0,88,0.00,,,0.05,,2013-10-15 02:22:00,
2013-10-14 21:52:00,60.0,57.0,29.94,SSE,163,3.0,12.0,89,0.00,,,0.05,,2013-10-15 02:52:00,
2013-10-14 22:12:00,60.0,57.0,29.94,SSE,152,5.0,18.0,89,0.00,,,0.05,,2013-10-15 03:12:00,
2013-10-14 22:23:00,60.0,56.0,29.94,SSE,164,5.0,20.0,86,0.00,,,0.05,,2013-10-15 03:23:00,
2013-10-14 22:44:00,59.0,55.0,29.91,ESE,121,7.0,15.0,88,0.00,,,0.05,,2013-10-15 03:44:00,
2013-10-14 22:55:00,59.0,55.0,29.92,South,178,6.0,22.0,88,0.01,,,0.06,,2013-10-15 03:55:00,
2013-10-14 23:14:00,59.0,55.0,29.93,SE,130,3.0,15.0,88,0.01,,,0.06,,2013-10-15 04:14:00,
2013-10-14 23:24:00,59.0,55.0,29.93,SE,140,8.0,20.0,88,0.01,,,0.06,,2013-10-15 04:24:00,
2013-10-14 23:43:00,59.0,55.0,29.93,South,177,2.0,17.0,87,0.01,,,0.06,,2013-10-15 04:43:00,
2013-10-14 23:54:00,59.0,55.0,29.93,SSE,150,1.0,13.0,87,0.00,,,0.06,,2013-10-15 04:54:00,